Tracking 19564 objects as of 18-Mar-2019
HD Live streaming from Space Station
objects crossing your sky now

THORAD DELTA 1 DEB

Track THORAD DELTA 1 DEB now!
10-day predictions


NORAD ID: 8184
Int'l Code: 1974-089BA
Perigee: 1,431.7 km
Apogee: 1,532.6 km
Inclination: 101.5 °
Period: 115.4 minutes
Semi major axis: 7853 km
RCS: 0.8469 m2 (medium)
Launch date: November 15, 1974
Source: United States (US)
Launch site: AIR FORCE WESTERN TEST RANGE (AFWTR)

Note: This is SATELLITE DEBRIS
aabbcc
Your satellite tracking list
Your tracking list is empty




NASA's NSSDC Master Catalog

Two Line Element Set (TLE):
1  8184U 74089BA  19076.77960074 -.00000032 +00000-0 +70969-4 0  9993
2  8184 101.4977 124.3752 0064253 191.4610 287.3714 12.47492426018651
Source of the keplerian elements: AFSPC